Visibility
15.0 15.0 15.0 15.0 15.0 15.0 2.5 4.7 2.2 4.0 15.0 15.0 10.5 4.5 15.0 15.0 15.0 15.0 9.0 15.0 15.0 15.0 12.1 14.9 15.0 15.0 15.0 15.0 15.0 15.0 15.0 15.0 15.0 15.0 15.0 15.0 15.0 15.0 15.0 15.0 15.0 15.0 15.0
15.0 15.0 15.0 15.0 15.0 15.0 15.0 2.5 3.8 5.4 12.5 15.0 15.0 7.8 8.3 15.0 15.0 15.0 5.9 15.0 15.0 15.0 15.0 15.0 5.2 15.0 15.0 15.0 15.0 15.0 15.0 15.0 15.0 15.0 15.0 15.0 15.0 15.0 15.0 15.0 15.0 15.0 15.0
15.0 15.0 15.0 15.0 15.0 15.0 15.0 15.0 3.5 15.0 2.2 10.8 15.0 4.7 3.5 15.0 15.0 15.0 14.5 15.0 3.3 15.0 14.3 13.8 13.4 15.0 15.0 15.0 15.0 15.0 15.0 15.0 15.0 15.0 15.0 15.0 15.0 15.0 15.0 15.0 15.0 15.0 15.0
15.0 15.0 15.0 15.0 15.0 15.0 15.0 15.0 15.0 14.6 1.9 3.8 8.0 15.0 3.5 12.6 15.0 15.0 15.0 15.0 4.6 15.0 10.3 15.0 11.7 15.0 15.0 15.0 15.0 15.0 15.0 15.0 15.0 15.0 15.0 15.0 15.0 15.0 15.0 15.0 15.0 15.0 15.0
15.0 15.0 15.0 15.0 15.0 15.0 15.0 15.0 15.0 15.0 14.5 5.8 7.1 1.9 3.7 2.6 9.6 9.0 15.0 15.0 15.0 9.2 9.6 15.0 9.0 15.0 15.0 15.0 15.0 15.0 15.0 15.0 15.0 15.0 15.0 15.0 15.0 15.0 15.0 15.0 15.0 15.0 15.0
15.0 15.0 15.0 15.0 15.0 15.0 15.0 15.0 15.0 15.0 14.6 11.3 6.2 1.7 2.1 0.3 0.8 4.1 15.0 15.0 15.0 15.0 15.0 15.0 14.6 10.1 15.0 15.0 15.0 15.0 15.0 15.0 15.0 15.0 15.0 15.0 15.0 15.0 15.0 15.0 15.0 15.0 15.0
15.0 15.0 15.0 15.0 15.0 15.0 15.0 15.0 15.0 15.0 15.0 2.0 8.1 1.3 0.1 2.8 2.2 0.2 9.3 15.0 15.0 7.8 8.1 15.0 15.0 15.0 15.0 14.3 15.0 15.0 15.0 15.0 15.0 15.0 15.0 15.0 15.0 15.0 15.0 15.0 15.0 15.0 15.0
15.0 15.0 15.0 15.0 15.0 15.0 15.0 15.0 15.0 15.0 15.0 15.0 2.6 1.9 0.1 0.3 0.3 15.0 0.4 3.3 15.0 15.0 15.0 15.0 5.0 14.3 15.0 15.0 15.0 15.0 15.0 15.0 15.0 15.0 15.0 15.0 15.0 15.0 15.0 15.0 15.0 15.0 15.0
15.0 15.0 15.0 15.0 15.0 15.0 15.0 15.0 15.0 15.0 10.7 15.0 15.0 0.1 0.8 0.9 2.5 1.7 1.3 2.5 1.0 4.7 15.0 15.0 2.9 1.0 8.5 15.0 15.0 15.0 15.0 15.0 15.0 15.0 15.0 15.0 15.0 15.0 15.0 15.0 15.0 15.0 15.0
15.0 15.0 15.0 15.0 15.0 15.0 15.0 15.0 15.0 15.0 15.0 13.9 11.4 11.7 4.2 0.9 0.1 0.2 0.3 15.0 5.0 3.0 15.0 3.0 3.4 3.1 9.2 15.0 15.0 15.0 15.0 15.0 15.0 15.0 15.0 15.0 15.0 15.0 15.0 15.0 15.0 15.0 15.0
15.0 15.0 15.0 15.0 15.0 15.0 15.0 15.0 15.0 15.0 15.0 15.0 15.0 14.8 14.2 4.0 4.2 0.1 2.1 0.1 0.3 15.0 15.0 3.0 12.7 3.6 5.1 2.8 15.0 15.0 15.0 15.0 15.0 15.0 15.0 15.0 15.0 15.0 15.0 15.0 15.0 15.0 15.0
15.0 15.0 15.0 15.0 15.0 15.0 15.0 15.0 15.0 15.0 15.0 15.0 15.0 15.0 10.8 0.3 2.9 0.9 0.4 4.8 6.3 5.3 15.0 15.0 13.9 4.9 11.5 3.4 6.9 15.0 15.0 15.0 15.0 15.0 15.0 15.0 15.0 15.0 15.0 15.0 15.0 15.0 15.0
15.0 15.0 15.0 15.0 15.0 15.0 15.0 15.0 15.0 15.0 15.0 15.0 15.0 15.0 14.6 7.5 4.7 4.7 5.0 6.2 1.8 13.1 0.6 15.0 13.5 15.0 15.0 15.0 15.0 15.0 12.3 15.0 15.0 15.0 15.0 15.0 15.0 15.0 15.0 15.0 15.0 15.0 15.0
15.0 15.0 15.0 15.0 15.0 15.0 13.1 15.0 15.0 15.0 15.0 15.0 15.0 15.0 15.0 15.0 15.0 11.6 2.4 0.3 2.9 14.5 6.8 13.3 14.8 15.0 15.0 15.0 15.0 15.0 13.9 15.0 15.0 15.0 15.0 15.0 15.0 15.0 15.0 15.0 15.0 15.0 15.0
15.0 15.0 15.0 15.0 15.0 15.0 15.0 15.0 15.0 15.0 15.0 15.0 15.0 15.0 15.0 15.0 15.0 15.0 15.0 5.1 0.2 0.2 9.8 15.0 15.0 15.0 15.0 15.0 15.0 15.0 15.0 5.0 15.0 15.0 15.0 13.1 15.0 15.0 15.0 15.0 15.0 15.0 15.0
15.0 15.0 15.0 15.0 15.0 14.2 5.1 15.0 15.0 15.0 15.0 15.0 15.0 15.0 15.0 15.0 15.0 15.0 15.0 10.1 4.1 1.7 0.1 13.6 15.0 15.0 15.0 15.0 5.5 10.4 10.6 6.9 5.7 15.0 15.0 0.0 0.2 15.0 15.0 15.0 15.0 15.0 15.0
15.0 15.0 15.0 8.0 15.0 0.1 15.0 15.0 15.0 15.0 15.0 15.0 15.0 15.0 11.0 0.5 15.0 15.0 15.0 15.0 15.0 3.7 0.1 8.2 15.0 15.0 15.0 3.5 4.1 13.5 5.0 4.1 4.2 15.0 15.0 0.2 0.0 0.1 3.2 15.0 15.0 15.0 15.0
15.0 15.0 15.0 15.0 15.0 0.0 15.0 15.0 15.0 15.0 15.0 4.0 12.2 15.0 0.9 0.0 0.1 15.0 15.0 15.0 15.0 15.0 0.1 0.4 14.6 15.0 15.0 11.8 5.3 6.3 15.0 15.0 7.3 15.0 15.0 14.2 0.0 0.0 0.0 0.3 15.0 15.0 15.0
15.0 15.0 15.0 12.2 15.0 0.0 15.0 15.0 15.0 15.0 13.4 9.1 14.8 6.2 0.2 0.0 0.0 0.1 13.4 15.0 15.0 14.6 7.7 0.1 15.0 15.0 15.0 15.0 11.5 8.2 14.6 15.0 8.6 0.7 0.1 11.4 0.2 0.0 0.0 0.1 5.3 15.0 15.0
15.0 15.0 15.0 15.0 15.0 15.0 14.0 15.0 14.4 15.0 15.0 15.0 15.0 8.6 5.0 0.3 0.0 0.0 0.1 0.2 2.7 0.8 7.7 2.0 10.9 15.0 15.0 15.0 15.0 5.3 0.2 12.7 15.0 15.0 0.1 0.1 0.1 0.0 0.0 0.0 0.1 12.8 15.0
15.0 15.0 15.0 15.0 15.0 14.9 10.0 5.3 9.8 15.0 13.5 15.0 15.0 15.0 13.3 12.7 2.9 0.0 0.0 0.1 0.1 0.1 0.6 14.7 7.0 15.0 15.0 5.4 6.7 2.3 4.7 6.6 15.0 15.0 2.1 0.1 0.1 0.0 0.0 0.0 0.1 0.2 15.0
15.0 15.0 15.0 15.0 15.0 4.1 9.3 9.9 14.1 15.0 15.0 15.0 13.7 5.9 14.8 14.5 0.8 0.7 0.1 0.1 1.6 0.1 0.1 0.4 1.5 1.1 15.0 15.0 15.0 6.9 15.0 15.0 1.1 14.8 15.0 14.8 10.6 0.1 0.2 0.1 0.3 0.1 0.2
15.0 15.0 15.0 15.0 15.0 6.5 8.4 8.9 14.7 15.0 15.0 15.0 14.9 0.1 0.1 0.1 4.7 15.0 0.1 0.1 15.0 15.0 0.3 0.1 0.1 8.8 0.1 11.0 15.0 15.0 12.3 7.1 3.0 9.8 15.0 15.0 2.1 15.0 15.0 13.8 0.4 0.1 0.1
15.0 15.0 15.0 15.0 13.7 15.0 9.9 8.5 15.0 15.0 15.0 15.0 15.0 0.2 1.9 0.0 0.1 15.0 0.2 0.0 0.1 15.0 15.0 14.0 0.3 2.3 8.8 6.8 0.1 8.4 11.7 12.0 15.0 11.7 15.0 15.0 0.2 15.0 15.0 15.0 0.4 0.1 0.0
15.0 15.0 15.0 15.0 15.0 15.0 14.4 7.6 14.1 15.0 15.0 15.0 15.0 14.9 11.4 0.3 0.1 3.5 15.0 0.2 0.0 0.1 15.0 15.0 15.0 14.0 10.2 3.0 0.1 0.1 0.2 12.9 5.7 2.4 2.3 0.2 0.0 0.0 0.0 15.0 9.4 8.6 0.2
15.0 15.0 15.0 15.0 15.0 14.6 15.0 10.3 5.7 15.0 10.8 15.0 15.0 15.0 15.0 15.0 15.0 15.0 2.5 1.5 0.7 0.0 0.0 0.4 15.0 15.0 15.0 11.3 15.0 8.7 0.1 4.1 10.3 0.1 0.8 14.2 0.0 0.0 0.0 0.0 0.1 1.7 12.9